Torna al catalogo

CZ-6A DEB

AttivoSSO
NORAD 54348·DEBRIS·🇨🇳 China

Lanciato Nov 11, 2022 da Taiyuan Satellite Launch Center

Loading…

Prossimi Passaggi (prossime 24 ore)

TLE

AggiornatoSource: Space-Track

Epoca: Sep 14, 2026, 01:10 UTC

1 54348U 22151CT  26257.04865099  .00000671  00000-0  23129-3 0  9992
2 54348  98.6223 285.7629 0101686 135.3317 225.6117 14.36249284200346

Traccia CZ-6A DEB in tempo reale con AllMySat

Download on the App Store